QZS-2 (MICHIBIKI-2)

Last updated on Sun Oct 26 2025 00:02:58 GMT+0000 (Coordinated Universal Time)

1 42738U 17028A 25297.71631679 -.00000202 00000+0 00000+0 0 9990 2 42738 39.7961 246.6040 0743956 270.9032 272.4302 1.00249992 5269
UTC large
Height (km)
Speed (km/s)
/
Latitude / Longitude
Inclination (degrees)
Orbital Period (minutes)
Azimuth
Elevation
Range (km)
Doppler Factor

Next 0 passes for location: London (51.5072 / 0.1276)

Sorry there are no passes over London.